Location: Absher
(46.5583°N, 107.9840°W)
Time: 08:56:50
(UTC+00:00)

TIGRISAT - Pass Details

Date: 03 April 2023
Orbit: 599 x 682 km, 97.7° (Epoch: 28 May)

Event Time Altitude Azimuth Distance (km) Brightness Sun altitude
Rises 10:25:40 0° 113° (ESE) 2,955 ? -23.3°
Reaches altitude 10° 10:28:53 10° 88° (E) 2,069 ? -22.8°
Maximum altitude 10:31:06 14° 58° (ENE) 1,851 ? -22.5°
Drops below altitude 10° 10:33:20 10° 29° (NNE) 2,100 ? -22.2°
Sets 10:36:38 0° 4° (N) 3,034 ? -21.7°
